SBI2615 UUDD-UNTT

Flight info

Callsign SBI2615
Flight time 3h 51m
Altitude 31000
Route OLMUN4S OLMUN T629 IPSIL T830 LAMGU N604 OGSIN P983 TINRI T448 RUBOR R244 KZ A300 NN NN1K
Aircraft A320/M-SDE3FGHIRWY/LB1

Departure

Time 2026-04-12 10:12
Airport Domodedovo International Airport (UUDD)

Arrival

Time 2026-04-12 14:03
Airport Tomsk Kamov Airport (UNTT)
Time Latitude Longitude Altitude Speed Heading
2026-04-12 10:01 55.41105 37.90417 566 ft 4 kts 285°
2026-04-12 10:02 55.41103 37.90478 574 ft 4 kts 256°
2026-04-12 10:02 55.41109 37.90508 572 ft 4 kts 245°
2026-04-12 10:02 55.41117 37.90537 566 ft 0 kts 235°
2026-04-12 10:04 55.41116 37.90534 565 ft 3 kts 234°
2026-04-12 10:04 55.41067 37.90415 565 ft 14 kts 236°
2026-04-12 10:04 55.41041 37.90336 565 ft 1 kts 250°
2026-04-12 10:04 55.41030 37.90212 570 ft 21 kts 251°
2026-04-12 10:05 55.40958 37.90010 572 ft 19 kts 239°
2026-04-12 10:05 55.40882 37.89815 567 ft 19 kts 235°
2026-04-12 10:05 55.40812 37.89637 575 ft 12 kts 238°
2026-04-12 10:05 55.40814 37.89592 569 ft 6 kts 297°
2026-04-12 10:06 55.40832 37.89517 573 ft 6 kts 270°
2026-04-12 10:06 55.40807 37.89428 576 ft 17 kts 238°
2026-04-12 10:06 55.40794 37.89201 574 ft 20 kts 292°
2026-04-12 10:06 55.40887 37.89048 574 ft 17 kts 324°
2026-04-12 10:07 55.40974 37.88941 576 ft 14 kts 325°
2026-04-12 10:07 55.41049 37.88850 582 ft 14 kts 326°
2026-04-12 10:07 55.41145 37.88736 577 ft 17 kts 326°
2026-04-12 10:07 55.41233 37.88629 578 ft 15 kts 325°
2026-04-12 10:08 55.41345 37.88496 581 ft 22 kts 326°
2026-04-12 10:08 55.41468 37.88348 580 ft 21 kts 325°
2026-04-12 10:08 55.41588 37.88202 582 ft 21 kts 325°
2026-04-12 10:08 55.41707 37.88061 582 ft 20 kts 326°
2026-04-12 10:09 55.41820 37.87926 586 ft 18 kts 326°
2026-04-12 10:09 55.41907 37.87823 591 ft 12 kts 326°
2026-04-12 10:09 55.41959 37.87760 594 ft 9 kts 326°
2026-04-12 10:09 55.42037 37.87665 596 ft 17 kts 325°
2026-04-12 10:10 55.42122 37.87561 599 ft 13 kts 325°
2026-04-12 10:10 55.42180 37.87469 598 ft 9 kts 291°
2026-04-12 10:10 55.42151 37.87357 597 ft 14 kts 235°
2026-04-12 10:10 55.42073 37.87273 595 ft 14 kts 176°
2026-04-12 10:11 55.41993 37.87355 596 ft 9 kts 146°
2026-04-12 10:11 55.41989 37.87360 596 ft 4 kts 146°
2026-04-12 10:11 55.41765 37.87630 590 ft 76 kts 146°
2026-04-12 10:11 55.41145 37.88377 580 ft 135 kts 146°
2026-04-12 10:12 55.40265 37.89433 716 ft 164 kts 146°
2026-04-12 10:12 55.39326 37.90500 1425 ft 160 kts 146°
2026-04-12 10:12 55.38376 37.91535 1973 ft 165 kts 153°
2026-04-12 10:12 55.37222 37.92196 2254 ft 183 kts 163°
2026-04-12 10:13 55.35942 37.92854 2526 ft 200 kts 160°
2026-04-12 10:13 55.34539 37.93664 2795 ft 221 kts 160°
2026-04-12 10:13 55.33028 37.94549 3317 ft 236 kts 160°
2026-04-12 10:13 55.31400 37.95217 3874 ft 244 kts 182°
2026-04-12 10:14 55.29830 37.94193 4468 ft 247 kts 221°
2026-04-12 10:14 55.28826 37.91797 5228 ft 249 kts 243°
2026-04-12 10:14 55.28140 37.88963 5989 ft 250 kts 249°
2026-04-12 10:14 55.27909 37.85947 6674 ft 255 kts 278°
2026-04-12 10:15 55.28495 37.83049 7304 ft 262 kts 301°
2026-04-12 10:15 55.29753 37.80697 7839 ft 270 kts 324°
2026-04-12 10:15 55.31305 37.78789 8510 ft 274 kts 325°
2026-04-12 10:15 55.32879 37.76969 9164 ft 278 kts 332°
2026-04-12 10:16 55.34701 37.75765 9757 ft 285 kts 348°
2026-04-12 10:16 55.36705 37.75420 10251 ft 293 kts 358°
2026-04-12 10:16 55.38759 37.75278 10868 ft 298 kts 358°
2026-04-12 10:16 55.40846 37.75125 11487 ft 302 kts 357°
2026-04-12 10:17 55.42956 37.74967 12096 ft 305 kts 357°
2026-04-12 10:17 55.45090 37.74802 12709 ft 309 kts 357°
2026-04-12 10:17 55.47244 37.74633 13332 ft 311 kts 357°
2026-04-12 10:17 55.49418 37.74462 13936 ft 313 kts 357°
2026-04-12 10:18 55.51601 37.74550 14522 ft 316 kts
2026-04-12 10:18 55.53743 37.75485 15087 ft 318 kts 22°
2026-04-12 10:18 55.55728 37.77225 15626 ft 320 kts 31°
2026-04-12 10:18 55.57658 37.79221 16175 ft 322 kts 31°
2026-04-12 10:19 55.59579 37.81204 16713 ft 324 kts 31°
2026-04-12 10:19 55.61456 37.83418 17218 ft 325 kts 44°
2026-04-12 10:19 55.62906 37.86466 17728 ft 325 kts 62°
2026-04-12 10:19 55.63778 37.90152 18087 ft 329 kts 79°
2026-04-12 10:20 55.63983 37.94231 18238 ft 338 kts 98°
2026-04-12 10:20 55.63540 37.98331 18605 ft 342 kts 105°
2026-04-12 10:20 55.63002 38.02459 19074 ft 345 kts 105°
2026-04-12 10:20 55.62468 38.06613 19559 ft 347 kts 105°
2026-04-12 10:21 55.61934 38.10789 20055 ft 349 kts 105°
2026-04-12 10:21 55.61398 38.14992 20527 ft 351 kts 104°
2026-04-12 10:21 55.60862 38.19208 20994 ft 353 kts 104°
2026-04-12 10:21 55.60323 38.23462 21458 ft 355 kts 104°
2026-04-12 10:22 55.59783 38.27722 21913 ft 356 kts 104°
2026-04-12 10:22 55.59237 38.32006 22355 ft 358 kts 104°
2026-04-12 10:22 55.58684 38.36313 22792 ft 360 kts 104°
2026-04-12 10:22 55.58317 38.40699 23211 ft 363 kts 93°
2026-04-12 10:23 55.58463 38.45174 23623 ft 367 kts 82°
2026-04-12 10:23 55.59130 38.49542 24032 ft 371 kts 70°
2026-04-12 10:23 55.60279 38.53580 24425 ft 374 kts 61°
2026-04-12 10:23 55.61606 38.57556 24817 ft 376 kts 61°
2026-04-12 10:24 55.62936 38.61555 25202 ft 379 kts 61°
2026-04-12 10:24 55.64274 38.65595 25590 ft 381 kts 62°
2026-04-12 10:24 55.65614 38.69653 25954 ft 383 kts 61°
2026-04-12 10:24 55.66960 38.73742 26309 ft 385 kts 62°
2026-04-12 10:25 55.68310 38.77853 26651 ft 387 kts 62°
2026-04-12 10:25 55.69667 38.81991 26993 ft 389 kts 62°
2026-04-12 10:25 55.71031 38.86148 27325 ft 391 kts 62°
2026-04-12 10:25 55.72404 38.90327 27634 ft 393 kts 61°
2026-04-12 10:26 55.73971 38.94322 27936 ft 397 kts 52°
2026-04-12 10:26 55.75857 38.97952 28223 ft 400 kts 49°
2026-04-12 10:26 55.77775 39.01555 28508 ft 402 kts 49°
2026-04-12 10:26 55.79699 39.05176 28782 ft 404 kts 49°
2026-04-12 10:27 55.81635 39.08826 29070 ft 406 kts 49°
2026-04-12 10:27 55.83577 39.12498 29333 ft 408 kts 49°
2026-04-12 10:27 55.85525 39.16188 29558 ft 410 kts 49°
2026-04-12 10:27 55.87488 39.19924 29702 ft 415 kts 49°
2026-04-12 10:28 55.89444 39.23663 29822 ft 420 kts 49°
2026-04-12 10:28 55.91444 39.27498 29949 ft 425 kts 49°
2026-04-12 10:28 55.93484 39.31365 30076 ft 430 kts 47°
2026-04-12 10:28 55.95622 39.35146 30200 ft 435 kts 45°
2026-04-12 10:29 55.97838 39.38847 30326 ft 439 kts 44°
2026-04-12 10:29 56.00110 39.42523 30451 ft 442 kts 44°
2026-04-12 10:29 56.02407 39.46221 30577 ft 445 kts 44°
2026-04-12 10:29 56.04703 39.49957 30704 ft 448 kts 45°
2026-04-12 10:30 56.06965 39.53814 30827 ft 449 kts 50°
2026-04-12 10:30 56.08904 39.58177 30984 ft 447 kts 58°
2026-04-12 10:30 56.10577 39.62881 31164 ft 448 kts 59°
2026-04-12 10:30 56.12248 39.67585 31340 ft 448 kts 59°
2026-04-12 10:31 56.13932 39.72300 31536 ft 449 kts 59°
2026-04-12 10:31 56.15619 39.77013 31732 ft 448 kts 59°
2026-04-12 10:31 56.17302 39.81718 31914 ft 449 kts 59°
2026-04-12 10:31 56.18982 39.86419 31686 ft 446 kts 59°
2026-04-12 10:32 56.20654 39.91114 31378 ft 447 kts 59°
2026-04-12 10:32 56.24008 40.00573 31375 ft 449 kts 59°
2026-04-12 10:33 56.27359 40.10065 31376 ft 450 kts 59°
2026-04-12 10:33 56.30685 40.19516 31385 ft 450 kts 59°
2026-04-12 10:34 56.34025 40.29038 31385 ft 449 kts 60°
2026-04-12 10:34 56.37348 40.38571 31385 ft 449 kts 60°
2026-04-12 10:35 56.40660 40.48107 31385 ft 448 kts 60°
2026-04-12 10:35 56.43958 40.57644 31387 ft 447 kts 60°
2026-04-12 10:36 56.46659 40.67703 31395 ft 443 kts 75°
2026-04-12 10:36 56.48283 40.78426 31394 ft 442 kts 76°
2026-04-12 10:37 56.49894 40.89163 31394 ft 443 kts 76°
2026-04-12 10:37 56.51504 40.99920 31392 ft 442 kts 77°
2026-04-12 10:38 56.53105 41.10678 31394 ft 443 kts 77°
2026-04-12 10:38 56.54694 41.21461 31395 ft 443 kts 77°
2026-04-12 10:39 56.56276 41.32260 31393 ft 444 kts 77°
2026-04-12 10:39 56.57853 41.43101 31395 ft 445 kts 77°
2026-04-12 10:40 56.59418 41.53958 31394 ft 445 kts 77°
2026-04-12 10:40 56.60961 41.64785 31394 ft 446 kts 77°
2026-04-12 10:41 56.62509 41.75705 31392 ft 447 kts 77°
2026-04-12 10:41 56.64062 41.86628 31394 ft 447 kts 77°
2026-04-12 10:42 56.65602 41.97568 31385 ft 447 kts 78°
2026-04-12 10:42 56.67131 42.08541 31385 ft 448 kts 78°
2026-04-12 10:43 56.69415 42.25068 31386 ft 449 kts 78°
2026-04-12 10:43 56.70927 42.36114 31385 ft 449 kts 78°
2026-04-12 10:44 56.72421 42.47143 31385 ft 449 kts 78°
2026-04-12 10:44 56.73925 42.58183 31384 ft 449 kts 78°
2026-04-12 10:45 56.75650 42.69121 31385 ft 450 kts 75°
2026-04-12 10:45 56.77518 42.80006 31385 ft 450 kts 75°
2026-04-12 10:46 56.79344 42.90916 31385 ft 450 kts 76°
2026-04-12 10:46 56.81113 43.01878 31385 ft 450 kts 76°
2026-04-12 10:47 56.82854 43.12866 31385 ft 451 kts 77°
2026-04-12 10:47 56.84582 43.23789 31386 ft 451 kts 76°
2026-04-12 10:48 56.86325 43.34817 31385 ft 452 kts 77°
2026-04-12 10:48 56.88053 43.45856 31386 ft 452 kts 77°
2026-04-12 10:49 56.89498 43.55140 31385 ft 453 kts 77°
2026-04-12 10:49 56.91210 43.66220 31385 ft 453 kts 77°
2026-04-12 10:50 56.92912 43.77248 31385 ft 453 kts 77°
2026-04-12 10:50 56.94613 43.88362 31385 ft 453 kts 77°
2026-04-12 10:51 56.96296 43.99474 31385 ft 453 kts 77°
2026-04-12 10:51 56.97977 44.10631 31385 ft 455 kts 78°
2026-04-12 10:52 56.99652 44.21836 31382 ft 456 kts 78°
2026-04-12 10:52 57.01322 44.33064 31376 ft 456 kts 78°
2026-04-12 10:53 57.02990 44.44288 31376 ft 456 kts 78°
2026-04-12 10:53 57.04645 44.55535 31376 ft 456 kts 78°
2026-04-12 10:54 57.06273 44.66794 31385 ft 456 kts 78°
2026-04-12 10:54 57.07887 44.78012 31385 ft 456 kts 78°
2026-04-12 10:55 57.09508 44.89303 31384 ft 457 kts 78°
2026-04-12 10:55 57.11125 45.00613 31385 ft 458 kts 78°
2026-04-12 10:56 57.12733 45.11957 31385 ft 458 kts 78°
2026-04-12 10:56 57.14330 45.23313 31385 ft 458 kts 78°
2026-04-12 10:57 57.15920 45.34704 31385 ft 459 kts 78°
2026-04-12 10:57 57.17494 45.46097 31384 ft 459 kts 79°
2026-04-12 10:58 57.19045 45.57418 31385 ft 459 kts 79°
2026-04-12 10:58 57.20599 45.68839 31385 ft 459 kts 79°
2026-04-12 10:59 57.22151 45.80267 31385 ft 459 kts 79°
2026-04-12 10:59 57.23697 45.91703 31385 ft 459 kts 79°
2026-04-12 11:00 57.25224 46.03153 31385 ft 459 kts 79°
2026-04-12 11:00 57.26737 46.14637 31385 ft 462 kts 79°
2026-04-12 11:01 57.28248 46.26184 31385 ft 463 kts 79°
2026-04-12 11:01 57.29761 46.37765 31385 ft 463 kts 79°
2026-04-12 11:02 57.31268 46.49351 31386 ft 464 kts 79°
2026-04-12 11:02 57.32761 46.60975 31385 ft 465 kts 80°
2026-04-12 11:03 57.34236 46.72630 31385 ft 465 kts 80°
2026-04-12 11:03 57.36454 46.83956 31387 ft 471 kts 68°
2026-04-12 11:04 57.39156 46.94973 31385 ft 473 kts 68°
2026-04-12 11:04 57.41857 47.06100 31384 ft 474 kts 69°
2026-04-12 11:05 57.44553 47.17277 31385 ft 474 kts 69°
2026-04-12 11:05 57.47247 47.28480 31385 ft 475 kts 69°
2026-04-12 11:06 57.49930 47.39724 31378 ft 477 kts 69°
2026-04-12 11:06 57.52607 47.51007 31376 ft 477 kts 69°
2026-04-12 11:07 57.55285 47.62321 31375 ft 477 kts 69°
2026-04-12 11:07 57.57944 47.73576 31376 ft 477 kts 69°
2026-04-12 11:08 57.60606 47.84917 31364 ft 478 kts 69°
2026-04-12 11:08 57.63255 47.96289 31357 ft 478 kts 69°
2026-04-12 11:09 57.65901 48.07687 31356 ft 478 kts 69°
2026-04-12 11:09 57.68538 48.19100 31357 ft 479 kts 69°
2026-04-12 11:10 57.71167 48.30549 31359 ft 479 kts 69°
2026-04-12 11:10 57.73774 48.42036 31357 ft 479 kts 70°
2026-04-12 11:11 57.75430 48.53991 31358 ft 473 kts 85°
2026-04-12 11:11 57.76296 48.66122 31357 ft 473 kts 86°
2026-04-12 11:12 57.77163 48.78337 31356 ft 473 kts 86°
2026-04-12 11:12 57.78018 48.90588 31358 ft 474 kts 86°
2026-04-12 11:13 57.78863 49.02829 31357 ft 474 kts 86°
2026-04-12 11:13 57.79694 49.15067 31357 ft 473 kts 86°
2026-04-12 11:14 57.80512 49.27313 31366 ft 473 kts 86°
2026-04-12 11:14 57.81320 49.39565 31367 ft 473 kts 86°
2026-04-12 11:15 57.82108 49.51809 31368 ft 473 kts 86°
2026-04-12 11:15 57.82886 49.63990 31366 ft 473 kts 86°
2026-04-12 11:16 57.83659 49.76232 31365 ft 472 kts 86°
2026-04-12 11:16 57.84420 49.88476 31365 ft 472 kts 86°
2026-04-12 11:17 57.85159 50.00714 31366 ft 471 kts 86°
2026-04-12 11:17 57.85895 50.12929 31366 ft 471 kts 87°
2026-04-12 11:18 57.86622 50.25190 31367 ft 472 kts 87°
2026-04-12 11:18 57.87340 50.37453 31367 ft 473 kts 87°
2026-04-12 11:19 57.88059 50.49748 31367 ft 473 kts 87°
2026-04-12 11:19 57.88755 50.61985 31367 ft 474 kts 88°
2026-04-12 11:20 57.89437 50.74315 31367 ft 475 kts 88°
2026-04-12 11:20 57.90109 50.86675 31367 ft 475 kts 88°
2026-04-12 11:21 57.90766 50.99053 31365 ft 476 kts 88°
2026-04-12 11:21 57.91420 51.11466 31367 ft 477 kts 88°
2026-04-12 11:22 57.92060 51.23826 31367 ft 478 kts 88°
2026-04-12 11:22 57.92690 51.36273 31367 ft 478 kts 88°
2026-04-12 11:23 57.93304 51.48765 31367 ft 479 kts 88°
2026-04-12 11:23 57.93930 51.61247 31367 ft 479 kts 88°
2026-04-12 11:24 57.94545 51.73760 31367 ft 479 kts 88°
2026-04-12 11:24 57.95131 51.86257 31367 ft 480 kts 88°
2026-04-12 11:25 57.95706 51.98780 31367 ft 480 kts 89°
2026-04-12 11:25 57.96272 52.11310 31363 ft 479 kts 89°
2026-04-12 11:26 57.96832 52.23829 31357 ft 480 kts 89°
2026-04-12 11:26 57.97384 52.36277 31360 ft 480 kts 89°
2026-04-12 11:27 57.97914 52.48805 31357 ft 479 kts 89°
2026-04-12 11:27 57.98425 52.61351 31357 ft 480 kts 89°
2026-04-12 11:28 57.98927 52.73907 31358 ft 480 kts 89°
2026-04-12 11:28 57.99428 52.86476 31363 ft 480 kts 89°
2026-04-12 11:29 57.99915 52.98982 31368 ft 481 kts 90°
2026-04-12 11:29 58.00386 53.11563 31368 ft 477 kts 89°
2026-04-12 11:30 58.00841 53.23978 31366 ft 473 kts 89°
2026-04-12 11:30 58.01275 53.36372 31365 ft 474 kts 89°
2026-04-12 11:31 58.01698 53.48793 31365 ft 475 kts 90°
2026-04-12 11:31 58.02123 53.61267 31366 ft 477 kts 90°
2026-04-12 11:32 58.02540 53.73778 31368 ft 479 kts 90°
2026-04-12 11:32 58.02933 53.86345 31374 ft 480 kts 90°
2026-04-12 11:33 58.03315 53.98925 31376 ft 481 kts 90°
2026-04-12 11:33 58.03694 54.11549 31376 ft 481 kts 90°
2026-04-12 11:34 58.04065 54.24076 31376 ft 481 kts 90°
2026-04-12 11:34 58.04430 54.36694 31376 ft 480 kts 90°
2026-04-12 11:35 58.04773 54.49259 31375 ft 479 kts 90°
2026-04-12 11:35 58.05102 54.61818 31385 ft 478 kts 90°
2026-04-12 11:36 58.05404 54.74347 31386 ft 477 kts 91°
2026-04-12 11:36 58.04926 54.86713 31386 ft 472 kts 101°
2026-04-12 11:37 58.04203 54.96915 31375 ft 472 kts 101°
2026-04-12 11:37 58.03321 55.09187 31375 ft 472 kts 101°
2026-04-12 11:38 58.02432 55.21479 31376 ft 473 kts 101°
2026-04-12 11:38 58.01531 55.33811 31377 ft 475 kts 101°
2026-04-12 11:39 58.00623 55.46163 31384 ft 477 kts 101°
2026-04-12 11:39 57.99701 55.58569 31376 ft 478 kts 102°
2026-04-12 11:40 57.98772 55.70953 31385 ft 481 kts 102°
2026-04-12 11:40 57.97812 55.83460 31385 ft 482 kts 102°
2026-04-12 11:41 57.96846 55.95973 31385 ft 483 kts 102°
2026-04-12 11:41 57.95872 56.08485 31384 ft 483 kts 102°
2026-04-12 11:42 57.94885 56.20997 31385 ft 483 kts 102°
2026-04-12 11:43 57.93386 56.39745 31385 ft 482 kts 102°
2026-04-12 11:43 57.92365 56.52209 31384 ft 483 kts 102°
2026-04-12 11:44 57.91333 56.64700 31386 ft 483 kts 102°
2026-04-12 11:44 57.90289 56.77182 31385 ft 484 kts 102°
2026-04-12 11:45 57.89231 56.89686 31374 ft 484 kts 102°
2026-04-12 11:45 57.88165 57.02204 31376 ft 485 kts 103°
2026-04-12 11:46 57.87076 57.14725 31373 ft 486 kts 103°
2026-04-12 11:46 57.85980 57.27153 31375 ft 486 kts 103°
2026-04-12 11:47 57.84870 57.39673 31374 ft 486 kts 103°
2026-04-12 11:47 57.83754 57.52213 31366 ft 487 kts 103°
2026-04-12 11:48 57.82618 57.64739 31367 ft 487 kts 103°
2026-04-12 11:48 57.81461 57.77282 31367 ft 488 kts 103°
2026-04-12 11:49 57.80289 57.89838 31361 ft 489 kts 103°
2026-04-12 11:49 57.79101 58.02384 31356 ft 489 kts 103°
2026-04-12 11:50 57.77917 58.14950 31356 ft 489 kts 103°
2026-04-12 11:50 57.76728 58.27504 31347 ft 489 kts 103°
2026-04-12 11:51 57.75527 58.39947 31348 ft 489 kts 103°
2026-04-12 11:51 57.74311 58.52480 31348 ft 489 kts 103°
2026-04-12 11:52 57.73079 58.65006 31337 ft 489 kts 103°
2026-04-12 11:52 57.71845 58.77529 31338 ft 489 kts 103°
2026-04-12 11:53 57.70603 58.90043 31340 ft 490 kts 103°
2026-04-12 11:53 57.69336 59.02594 31332 ft 491 kts 104°
2026-04-12 11:54 57.68047 59.15142 31328 ft 492 kts 104°
2026-04-12 11:54 57.66748 59.27706 31331 ft 493 kts 104°
2026-04-12 11:55 57.65438 59.40288 31319 ft 494 kts 104°
2026-04-12 11:55 57.64110 59.52908 31322 ft 495 kts 104°
2026-04-12 11:56 57.62780 59.65431 31323 ft 496 kts 104°
2026-04-12 11:56 57.61421 59.78068 31320 ft 496 kts 104°
2026-04-12 11:57 57.60044 59.90692 31315 ft 497 kts 104°
2026-04-12 11:57 57.58655 60.03333 31306 ft 497 kts 104°
2026-04-12 11:58 57.57258 60.15973 31312 ft 498 kts 104°
2026-04-12 11:58 57.55852 60.28603 31314 ft 498 kts 104°
2026-04-12 11:59 57.54429 60.41164 31304 ft 499 kts 104°
2026-04-12 11:59 57.52981 60.53780 31314 ft 498 kts 104°
2026-04-12 12:00 57.52022 60.66554 31315 ft 501 kts 94°
2026-04-12 12:00 57.51671 60.79503 31302 ft 501 kts 94°
2026-04-12 12:01 57.51290 60.92457 31304 ft 501 kts 94°
2026-04-12 12:01 57.50877 61.05411 31305 ft 501 kts 94°
2026-04-12 12:02 57.50456 61.18373 31304 ft 503 kts 94°
2026-04-12 12:02 57.50039 61.31284 31300 ft 503 kts 94°
2026-04-12 12:03 57.49609 61.44307 31299 ft 504 kts 94°
2026-04-12 12:03 57.49150 61.57319 31300 ft 505 kts 94°
2026-04-12 12:04 57.48675 61.70349 31300 ft 505 kts 94°
2026-04-12 12:04 57.48205 61.83389 31301 ft 506 kts 94°
2026-04-12 12:05 57.47719 61.96430 31305 ft 506 kts 94°
2026-04-12 12:05 57.47214 62.09426 31302 ft 508 kts 94°
2026-04-12 12:06 57.46686 62.22524 31304 ft 508 kts 94°
2026-04-12 12:06 57.46161 62.35625 31303 ft 508 kts 94°
2026-04-12 12:07 57.45632 62.48713 31296 ft 508 kts 94°
2026-04-12 12:07 57.45085 62.61810 31294 ft 507 kts 94°
2026-04-12 12:08 57.44523 62.74810 31295 ft 508 kts 94°
2026-04-12 12:08 57.43946 62.87889 31290 ft 508 kts 95°
2026-04-12 12:09 57.43350 63.00956 31288 ft 507 kts 95°
2026-04-12 12:09 57.42748 63.14021 31295 ft 508 kts 95°
2026-04-12 12:10 57.42135 63.27109 31294 ft 509 kts 95°
2026-04-12 12:10 57.41505 63.40223 31284 ft 511 kts 94°
2026-04-12 12:11 57.40866 63.53275 31286 ft 512 kts 95°
2026-04-12 12:11 57.40199 63.66432 31285 ft 513 kts 95°
2026-04-12 12:12 57.39213 63.79515 31285 ft 513 kts 105°
2026-04-12 12:12 57.37400 63.92316 31279 ft 514 kts 105°
2026-04-12 12:13 57.35589 64.05127 31273 ft 515 kts 105°
2026-04-12 12:13 57.33757 64.17980 31274 ft 517 kts 105°
2026-04-12 12:14 57.31917 64.30728 31274 ft 515 kts 105°
2026-04-12 12:14 57.30052 64.43520 31275 ft 515 kts 105°
2026-04-12 12:15 57.28180 64.56296 31276 ft 514 kts 105°
2026-04-12 12:15 57.26301 64.69050 31274 ft 514 kts 105°
2026-04-12 12:16 57.24414 64.81780 31276 ft 514 kts 105°
2026-04-12 12:16 57.22503 64.94503 31276 ft 514 kts 105°
2026-04-12 12:17 57.20578 65.07212 31274 ft 514 kts 105°
2026-04-12 12:17 57.18650 65.19919 31274 ft 515 kts 105°
2026-04-12 12:18 57.16886 65.32169 31273 ft 514 kts 99°
2026-04-12 12:18 57.15995 65.45213 31274 ft 513 kts 95°
2026-04-12 12:19 57.15175 65.58301 31275 ft 514 kts 95°
2026-04-12 12:19 57.14337 65.71271 31274 ft 514 kts 95°
2026-04-12 12:20 57.13467 65.84362 31276 ft 515 kts 95°
2026-04-12 12:20 57.12589 65.97457 31275 ft 515 kts 95°
2026-04-12 12:21 57.11691 66.10529 31271 ft 516 kts 95°
2026-04-12 12:21 57.10782 66.23628 31275 ft 515 kts 95°
2026-04-12 12:22 57.09880 66.36618 31273 ft 515 kts 95°
2026-04-12 12:22 57.08947 66.49706 31274 ft 516 kts 96°
2026-04-12 12:23 57.07998 66.62773 31275 ft 515 kts 96°
2026-04-12 12:23 57.07041 66.75805 31261 ft 515 kts 96°
2026-04-12 12:24 57.06065 66.88863 31266 ft 515 kts 96°
2026-04-12 12:24 57.05035 67.01897 31267 ft 516 kts 97°
2026-04-12 12:25 57.03917 67.14822 31266 ft 515 kts 97°
2026-04-12 12:25 57.02753 67.27816 31269 ft 515 kts 97°
2026-04-12 12:26 57.01791 67.38618 31266 ft 516 kts 97°
2026-04-12 12:26 57.00644 67.51623 31267 ft 516 kts 97°
2026-04-12 12:27 56.99488 67.64606 31268 ft 516 kts 97°
2026-04-12 12:27 56.98313 67.77589 31264 ft 516 kts 98°
2026-04-12 12:28 56.97106 67.90584 31267 ft 516 kts 98°
2026-04-12 12:28 56.95891 68.03557 31266 ft 516 kts 98°
2026-04-12 12:29 56.94679 68.16437 31265 ft 517 kts 98°
2026-04-12 12:29 56.93439 68.29421 31257 ft 518 kts 98°
2026-04-12 12:30 56.92184 68.42429 31257 ft 518 kts 98°
2026-04-12 12:30 56.90917 68.55436 31256 ft 519 kts 98°
2026-04-12 12:31 56.89637 68.68447 31253 ft 519 kts 98°
2026-04-12 12:31 56.88340 68.81428 31256 ft 519 kts 98°
2026-04-12 12:32 56.87034 68.94423 31257 ft 520 kts 98°
2026-04-12 12:32 56.85934 69.05230 31258 ft 520 kts 98°
2026-04-12 12:33 56.84373 69.20338 31256 ft 520 kts 98°
2026-04-12 12:33 56.83020 69.33329 31258 ft 520 kts 98°
2026-04-12 12:34 56.81652 69.46326 31258 ft 521 kts 98°
2026-04-12 12:34 56.80265 69.59320 31257 ft 522 kts 99°
2026-04-12 12:35 56.78860 69.72329 31214 ft 523 kts 99°
2026-04-12 12:35 56.77451 69.85357 31220 ft 523 kts 99°
2026-04-12 12:36 56.76020 69.98366 31220 ft 523 kts 99°
2026-04-12 12:36 56.74572 70.11375 31220 ft 525 kts 99°
2026-04-12 12:37 56.73347 70.24388 31219 ft 522 kts 90°
2026-04-12 12:37 56.73117 70.37574 31214 ft 521 kts 88°
2026-04-12 12:38 56.72886 70.50777 31213 ft 522 kts 88°
2026-04-12 12:38 56.72632 70.63968 31220 ft 522 kts 88°
2026-04-12 12:39 56.72371 70.77170 31209 ft 521 kts 88°
2026-04-12 12:39 56.72099 70.90374 31209 ft 521 kts 88°
2026-04-12 12:40 56.71811 71.03490 31212 ft 521 kts 88°
2026-04-12 12:40 56.71513 71.16695 31211 ft 522 kts 88°
2026-04-12 12:41 56.71187 71.29916 31212 ft 522 kts 88°
2026-04-12 12:41 56.70850 71.43110 31211 ft 521 kts 88°
2026-04-12 12:42 56.70517 71.56224 31208 ft 522 kts 88°
2026-04-12 12:42 56.69975 71.76058 31200 ft 523 kts 88°
2026-04-12 12:43 56.69591 71.89261 31202 ft 523 kts 88°
2026-04-12 12:43 56.69194 72.02517 31201 ft 524 kts 88°
2026-04-12 12:44 56.68783 72.15766 31201 ft 524 kts 88°
2026-04-12 12:44 56.68362 72.28999 31197 ft 523 kts 89°
2026-04-12 12:45 56.67930 72.42197 31202 ft 523 kts 89°
2026-04-12 12:45 56.67483 72.55299 31202 ft 522 kts 89°
2026-04-12 12:46 56.67012 72.68509 31194 ft 522 kts 89°
2026-04-12 12:46 56.66528 72.81686 31189 ft 522 kts 89°
2026-04-12 12:47 56.66044 72.94774 31193 ft 521 kts 90°
2026-04-12 12:47 56.65540 73.07913 31192 ft 520 kts 90°
2026-04-12 12:48 56.65021 73.21045 31192 ft 520 kts 90°
2026-04-12 12:48 56.64487 73.34143 31192 ft 519 kts 90°
2026-04-12 12:49 56.63942 73.47236 31184 ft 518 kts 90°
2026-04-12 12:49 56.63392 73.60284 31165 ft 518 kts 90°
2026-04-12 12:50 56.62827 73.73239 31163 ft 517 kts 91°
2026-04-12 12:50 56.62247 73.86248 31163 ft 516 kts 91°
2026-04-12 12:51 56.61651 73.99224 31164 ft 516 kts 91°
2026-04-12 12:51 56.61037 74.12204 31168 ft 516 kts 91°
2026-04-12 12:52 56.60417 74.25181 31169 ft 515 kts 91°
2026-04-12 12:52 56.59783 74.38138 31170 ft 515 kts 91°
2026-04-12 12:53 56.59136 74.51093 31166 ft 515 kts 91°
2026-04-12 12:53 56.58485 74.63959 31161 ft 515 kts 91°
2026-04-12 12:54 56.57806 74.76910 31165 ft 516 kts 92°
2026-04-12 12:54 56.57106 74.89869 31168 ft 516 kts 92°
2026-04-12 12:55 56.56398 75.02849 31164 ft 517 kts 92°
2026-04-12 12:55 56.55687 75.15794 31162 ft 516 kts 92°
2026-04-12 12:56 56.54967 75.28737 31168 ft 515 kts 92°
2026-04-12 12:56 56.54215 75.41644 31164 ft 515 kts 93°
2026-04-12 12:57 56.53453 75.54574 31164 ft 515 kts 93°
2026-04-12 12:57 56.52691 75.67456 31164 ft 514 kts 93°
2026-04-12 12:58 56.51924 75.80233 31163 ft 514 kts 93°
2026-04-12 12:58 56.51122 75.93106 31164 ft 514 kts 93°
2026-04-12 12:59 56.50309 76.05964 31172 ft 513 kts 93°
2026-04-12 12:59 56.49493 76.18791 31174 ft 513 kts 94°
2026-04-12 13:00 56.48669 76.31624 31173 ft 513 kts 94°
2026-04-12 13:00 56.47830 76.44374 31173 ft 514 kts 94°
2026-04-12 13:01 56.46968 76.57229 31147 ft 514 kts 94°
2026-04-12 13:01 56.46086 76.70092 31140 ft 515 kts 94°
2026-04-12 13:02 56.45189 76.82947 31137 ft 515 kts 94°
2026-04-12 13:02 56.44289 76.95823 31135 ft 516 kts 94°
2026-04-12 13:03 56.43380 77.08614 31139 ft 516 kts 95°
2026-04-12 13:03 56.42443 77.21495 31091 ft 516 kts 95°
2026-04-12 13:04 56.41502 77.34375 31082 ft 516 kts 95°
2026-04-12 13:04 56.40547 77.47195 31072 ft 515 kts 95°
2026-04-12 13:05 56.39586 77.60011 31085 ft 514 kts 95°
2026-04-12 13:05 56.38657 77.72739 31070 ft 513 kts 95°
2026-04-12 13:06 56.37722 77.85510 31070 ft 513 kts 95°
2026-04-12 13:06 56.36761 77.98282 31070 ft 513 kts 95°
2026-04-12 13:07 56.35767 78.11020 31075 ft 513 kts 95°
2026-04-12 13:07 56.34774 78.23767 31065 ft 513 kts 95°
2026-04-12 13:08 56.33876 78.36529 31071 ft 512 kts 89°
2026-04-12 13:08 56.33859 78.49335 31075 ft 510 kts 86°
2026-04-12 13:09 56.33874 78.62146 31064 ft 511 kts 86°
2026-04-12 13:09 56.33864 78.74876 31062 ft 511 kts 86°
2026-04-12 13:10 56.33833 78.87722 31063 ft 512 kts 86°
2026-04-12 13:10 56.33791 79.00557 31063 ft 512 kts 87°
2026-04-12 13:11 56.33740 79.13412 31060 ft 513 kts 87°
2026-04-12 13:11 56.33678 79.26252 31054 ft 512 kts 87°
2026-04-12 13:12 56.33602 79.39074 31052 ft 512 kts 87°
2026-04-12 13:12 56.33527 79.49753 31054 ft 512 kts 87°
2026-04-12 13:13 56.33414 79.62585 31053 ft 511 kts 88°
2026-04-12 13:13 56.33289 79.77470 31051 ft 510 kts 88°
2026-04-12 13:14 56.33192 79.88189 31042 ft 510 kts 88°
2026-04-12 13:14 56.33049 80.00879 31044 ft 510 kts 88°
2026-04-12 13:15 56.32894 80.13667 31045 ft 509 kts 88°
2026-04-12 13:15 56.32724 80.26446 31045 ft 510 kts 88°
2026-04-12 13:16 56.32542 80.39238 31045 ft 510 kts 88°
2026-04-12 13:16 56.32356 80.52039 31036 ft 511 kts 88°
2026-04-12 13:17 56.32156 80.64850 31037 ft 512 kts 89°
2026-04-12 13:17 56.31943 80.77622 31036 ft 513 kts 88°
2026-04-12 13:18 56.31790 80.90457 31035 ft 513 kts 88°
2026-04-12 13:19 56.31560 81.09770 31036 ft 514 kts 88°
2026-04-12 13:19 56.31362 81.22652 31036 ft 514 kts 89°
2026-04-12 13:20 56.31140 81.35537 31024 ft 514 kts 89°
2026-04-12 13:20 56.30926 81.48314 31026 ft 513 kts 89°
2026-04-12 13:21 56.30709 81.61152 31027 ft 512 kts 89°
2026-04-12 13:21 56.30463 81.73992 31026 ft 512 kts 89°
2026-04-12 13:22 56.30184 81.86794 31026 ft 511 kts 89°
2026-04-12 13:22 56.29892 81.99506 31027 ft 511 kts 89°
2026-04-12 13:23 56.29593 82.12322 31015 ft 511 kts 90°
2026-04-12 13:23 56.29278 82.25138 31017 ft 511 kts 90°
2026-04-12 13:24 56.28958 82.37862 31017 ft 512 kts 90°
2026-04-12 13:24 56.28627 82.50671 31018 ft 513 kts 90°
2026-04-12 13:25 56.28266 82.63496 31020 ft 514 kts 90°
2026-04-12 13:25 56.27910 82.76320 31025 ft 514 kts 90°
2026-04-12 13:26 56.27530 82.89191 31017 ft 515 kts 91°
2026-04-12 13:26 56.27127 83.02074 31017 ft 516 kts 91°
2026-04-12 13:27 56.26706 83.14966 31017 ft 516 kts 91°
2026-04-12 13:27 56.26281 83.27868 31016 ft 516 kts 91°
2026-04-12 13:28 56.25926 83.38576 31009 ft 516 kts 91°
2026-04-12 13:28 56.25406 83.53544 30999 ft 515 kts 92°
2026-04-12 13:29 56.24935 83.66405 30999 ft 515 kts 92°
2026-04-12 13:29 56.24440 83.79269 30993 ft 515 kts 92°
2026-04-12 13:30 56.23934 83.92141 31000 ft 516 kts 92°
2026-04-12 13:30 56.23956 83.98563 30991 ft 511 kts 81°
2026-04-12 13:30 56.24635 84.04787 30985 ft 505 kts 69°
2026-04-12 13:31 56.26620 84.16925 30989 ft 506 kts 69°
2026-04-12 13:31 56.28585 84.29057 30989 ft 506 kts 69°
2026-04-12 13:32 56.30539 84.41234 30990 ft 506 kts 69°
2026-04-12 13:32 56.32482 84.53453 30980 ft 507 kts 70°
2026-04-12 13:33 56.34404 84.65667 30980 ft 507 kts 70°
2026-04-12 13:33 56.36315 84.77875 30980 ft 508 kts 70°
2026-04-12 13:34 56.38714 84.89756 30980 ft 495 kts 51°
2026-04-12 13:34 56.40851 84.94505 30972 ft 480 kts 35°
2026-04-12 13:34 56.43290 84.98519 30967 ft 469 kts 34°
2026-04-12 13:34 56.45663 85.02406 30968 ft 450 kts 33°
2026-04-12 13:35 56.47938 85.06140 30970 ft 433 kts 33°
2026-04-12 13:35 56.52315 85.13272 30971 ft 423 kts 32°
2026-04-12 13:36 56.56627 85.20543 30968 ft 432 kts 44°
2026-04-12 13:36 56.58101 85.25415 30974 ft 451 kts 68°
2026-04-12 13:36 56.58534 85.31092 30981 ft 461 kts 92°
2026-04-12 13:36 56.57836 85.36768 30980 ft 462 kts 116°
2026-04-12 13:37 56.56112 85.41577 30979 ft 452 kts 141°
2026-04-12 13:37 56.53640 85.44854 30980 ft 432 kts 165°
2026-04-12 13:37 56.50832 85.46177 30981 ft 406 kts 189°
2026-04-12 13:37 56.48159 85.45469 30980 ft 376 kts 213°
2026-04-12 13:38 56.46090 85.43053 30979 ft 348 kts 237°
2026-04-12 13:38 56.43174 85.36191 30970 ft 344 kts 241°
2026-04-12 13:39 56.40306 85.29245 30971 ft 345 kts 241°
2026-04-12 13:39 56.37342 85.22365 30969 ft 361 kts 231°
2026-04-12 13:39 56.35392 85.19887 30974 ft 387 kts 218°
2026-04-12 13:40 56.33301 85.18009 30913 ft 397 kts 217°
2026-04-12 13:40 56.31090 85.15133 29846 ft 388 kts 236°
2026-04-12 13:40 56.29768 85.11019 28727 ft 377 kts 260°
2026-04-12 13:40 56.29682 85.06547 28510 ft 354 kts 283°
2026-04-12 13:41 56.30687 85.02639 28379 ft 344 kts 306°
2026-04-12 13:41 56.32344 84.99608 28254 ft 334 kts 312°
2026-04-12 13:41 56.34029 84.96829 28120 ft 323 kts 313°
2026-04-12 13:41 56.35785 84.94345 27843 ft 321 kts 321°
2026-04-12 13:42 56.37831 84.92630 27457 ft 331 kts 336°
2026-04-12 13:42 56.40169 84.92163 27040 ft 348 kts 354°
2026-04-12 13:42 56.42582 84.93162 26606 ft 368 kts 13°
2026-04-12 13:42 56.44791 84.95591 26155 ft 385 kts 30°
2026-04-12 13:43 56.46862 84.98775 25675 ft 386 kts 31°
2026-04-12 13:43 56.48909 85.01929 25239 ft 384 kts 30°
2026-04-12 13:43 56.50919 85.05008 24808 ft 381 kts 30°
2026-04-12 13:43 56.52941 85.08095 24375 ft 379 kts 30°
2026-04-12 13:44 56.54961 85.11177 23938 ft 377 kts 30°
2026-04-12 13:44 56.56961 85.14234 23514 ft 375 kts 30°
2026-04-12 13:44 56.58940 85.17266 23103 ft 372 kts 30°
2026-04-12 13:44 56.60853 85.20201 22953 ft 361 kts 30°
2026-04-12 13:45 56.62754 85.23132 22824 ft 350 kts 30°
2026-04-12 13:45 56.64582 85.25959 22695 ft 339 kts 29°
2026-04-12 13:45 56.66341 85.28695 22535 ft 328 kts 29°
2026-04-12 13:45 56.68046 85.31329 22186 ft 321 kts 27°
2026-04-12 13:46 56.69751 85.33951 21587 ft 321 kts 29°
2026-04-12 13:46 56.71384 85.36735 21029 ft 325 kts 41°
2026-04-12 13:46 56.72484 85.40425 20466 ft 340 kts 70°
2026-04-12 13:46 56.72718 85.44709 19917 ft 346 kts 97°
2026-04-12 13:47 56.71980 85.48806 19367 ft 337 kts 126°
2026-04-12 13:47 56.70430 85.51790 18964 ft 310 kts 160°
2026-04-12 13:47 56.68525 85.53178 18462 ft 292 kts 181°
2026-04-12 13:47 56.66639 85.53533 18534 ft 257 kts 193°
2026-04-12 13:48 56.64878 85.53130 17813 ft 260 kts 205°
2026-04-12 13:48 56.63174 85.52449 17250 ft 267 kts 205°
2026-04-12 13:48 56.61355 85.51667 16867 ft 271 kts 205°
2026-04-12 13:48 56.59513 85.50869 16587 ft 271 kts 205°
2026-04-12 13:49 56.57683 85.50072 16323 ft 267 kts 208°
2026-04-12 13:49 56.56056 85.48744 16046 ft 249 kts 225°
2026-04-12 13:49 56.54786 85.46766 15658 ft 234 kts 239°
2026-04-12 13:49 56.53918 85.44407 15141 ft 224 kts 252°
2026-04-12 13:50 56.53433 85.41780 14611 ft 215 kts 264°
2026-04-12 13:50 56.53341 85.39096 14064 ft 214 kts 275°
2026-04-12 13:50 56.53619 85.36456 13539 ft 214 kts 288°
2026-04-12 13:50 56.54252 85.34025 13015 ft 215 kts 300°
2026-04-12 13:51 56.55218 85.31926 12493 ft 219 kts 312°
2026-04-12 13:51 56.56480 85.30320 11967 ft 225 kts 325°
2026-04-12 13:51 56.57954 85.29342 11446 ft 233 kts 340°
2026-04-12 13:51 56.59609 85.29124 10896 ft 243 kts 355°
2026-04-12 13:52 56.61334 85.29543 10166 ft 255 kts
2026-04-12 13:52 56.63067 85.30206 9417 ft 263 kts
2026-04-12 13:52 56.64873 85.30976 8753 ft 268 kts
2026-04-12 13:52 56.66673 85.31781 8154 ft 263 kts
2026-04-12 13:53 56.68452 85.32570 7555 ft 262 kts
2026-04-12 13:53 56.70222 85.33414 6872 ft 266 kts 15°
2026-04-12 13:53 56.71798 85.35300 6240 ft 279 kts 41°
2026-04-12 13:53 56.72816 85.38434 5607 ft 296 kts 72°
2026-04-12 13:54 56.72928 85.42057 5238 ft 286 kts 101°
2026-04-12 13:54 56.72309 85.45371 4743 ft 280 kts 121°
2026-04-12 13:54 56.71184 85.48212 4525 ft 272 kts 140°
2026-04-12 13:54 56.69775 85.50249 4458 ft 250 kts 156°
2026-04-12 13:55 56.68436 85.51378 4410 ft 235 kts 169°
2026-04-12 13:55 56.66872 85.51960 4270 ft 226 kts 187°
2026-04-12 13:55 56.65403 85.51461 4139 ft 208 kts 212°
2026-04-12 13:55 56.64155 85.50218 4096 ft 199 kts 217°
2026-04-12 13:56 56.62988 85.49016 4051 ft 186 kts 217°
2026-04-12 13:56 56.61907 85.47904 4026 ft 177 kts 217°
2026-04-12 13:56 56.60838 85.46786 3979 ft 180 kts 218°
2026-04-12 13:56 56.59773 85.45670 3937 ft 180 kts 217°
2026-04-12 13:57 56.58690 85.44541 3893 ft 179 kts 217°
2026-04-12 13:57 56.57880 85.43699 3872 ft 179 kts 217°
2026-04-12 13:57 56.56741 85.42697 3827 ft 181 kts 213°
2026-04-12 13:57 56.55639 85.41630 3795 ft 177 kts 218°
2026-04-12 13:58 56.54616 85.40489 3781 ft 162 kts 220°
2026-04-12 13:58 56.53735 85.39463 3765 ft 144 kts 221°
2026-04-12 13:58 56.52924 85.38498 3663 ft 136 kts 222°
2026-04-12 13:58 56.52150 85.37572 3520 ft 133 kts 222°
2026-04-12 13:59 56.51520 85.36817 3389 ft 132 kts 222°
2026-04-12 13:59 56.50749 85.35891 3221 ft 131 kts 221°
2026-04-12 13:59 56.49995 85.34988 3056 ft 131 kts 221°
2026-04-12 13:59 56.49234 85.34077 2892 ft 131 kts 221°
2026-04-12 14:00 56.48472 85.33165 2732 ft 131 kts 220°
2026-04-12 14:00 56.47710 85.32255 2551 ft 131 kts 219°
2026-04-12 14:00 56.46947 85.31343 2382 ft 131 kts 219°
2026-04-12 14:00 56.46188 85.30436 2216 ft 131 kts 219°
2026-04-12 14:01 56.45428 85.29528 2047 ft 131 kts 218°
2026-04-12 14:01 56.44663 85.28617 1877 ft 131 kts 218°
2026-04-12 14:01 56.43900 85.27707 1712 ft 131 kts 217°
2026-04-12 14:01 56.43138 85.26808 1577 ft 131 kts 217°
2026-04-12 14:02 56.42443 85.25931 1416 ft 131 kts 219°
2026-04-12 14:02 56.41699 85.25075 1243 ft 131 kts 214°
2026-04-12 14:02 56.40944 85.24169 1097 ft 131 kts 219°
2026-04-12 14:02 56.40178 85.23264 889 ft 132 kts 213°
2026-04-12 14:03 56.39414 85.22363 698 ft 132 kts 217°
2026-04-12 14:03 56.38657 85.21451 577 ft 127 kts 213°
2026-04-12 14:03 56.38208 85.20916 566 ft 100 kts 213°
2026-04-12 14:03 56.37856 85.20501 568 ft 34 kts 213°
2026-04-12 14:04 56.37689 85.20301 567 ft 15 kts 218°
2026-04-12 14:04 56.37629 85.20227 567 ft 2 kts 133°
2026-04-12 14:04 56.37682 85.20284 567 ft 18 kts 29°
2026-04-12 14:04 56.37795 85.20436 571 ft 23 kts 31°
2026-04-12 14:05 56.37947 85.20614 571 ft 29 kts 34°
2026-04-12 14:05 56.38081 85.20747 573 ft 15 kts 358°
2026-04-12 14:05 56.38237 85.20542 573 ft 15 kts 28°
2026-04-12 14:06 56.38336 85.20661 574 ft 20 kts 30°
2026-04-12 14:06 56.38479 85.20828 572 ft 27 kts 33°
2026-04-12 14:06 56.38634 85.21010 571 ft 25 kts 33°
2026-04-12 14:06 56.38766 85.21166 570 ft 21 kts 34°
2026-04-12 14:07 56.38850 85.21242 573 ft 10 kts 350°
2026-04-12 14:07 56.38882 85.21179 568 ft 3 kts 303°
2026-04-12 14:07 56.38886 85.21167 568 ft 0 kts 302°